IN3BXS Weather Reports


time (UTC)temp
C
wind
direction
speed
KPH
gust
KPH
rain 1hr
cm
rain 24hr
cm
rain mn
cm
humidity
%
barometer
mb
20260504173025 15 217 0.0 19.3 0.00 0.00 0.00 22 1010.9
20260504120201 18 236 0.0 17.7 0.00 0.00 0.00 20 1010.7
20260504043026 7 1 0.0 4.8 0.00 0.00 0.00 28 1015.7
20260504040026 7 1 0.0 4.8 0.00 0.00 0.00 28 1015.7
20260504033026 7 1 0.0 4.8 0.00 0.00 0.00 28 1015.5
20260504030026 7 1 0.0 3.2 0.00 0.00 0.00 28 1015.4
20260504023026 8 1 0.0 4.8 0.00 0.00 0.00 27 1015.2
20260504020026 9 1 0.0 4.8 0.00 0.00 0.00 26 1014.7
20260504013026 11 301 0.0 4.8 0.00 0.00 0.00 23 1014.0
20260504010026 11 51 0.0 0.0 0.00 0.00 0.00 23 1014.0
20260504003026 10 327 0.0 0.0 0.00 0.00 0.00 24 1014.0
20260504000026 11 0 0.0 4.8 0.00 0.00 0.00 23 1013.9
20260503233026 11 278 0.0 4.8 0.00 0.00 0.00 26 1014.9
20260503230026 11 313 0.0 6.4 0.00 0.00 0.00 26 1014.9
20260503223026 11 353 0.0 0.0 0.00 0.00 0.00 26 1015.0
20260503220026 11 353 0.0 4.8 0.00 0.00 0.00 26 1015.1
20260503213026 10 316 0.0 4.8 0.00 0.00 0.00 26 1015.2
20260503210026 11 282 0.0 8.0 0.00 0.00 0.00 26 1015.0
20260503203027 12 279 0.0 3.2 0.00 0.00 0.00 23 1014.7
20260503200026 13 268 0.0 9.7 0.00 0.00 0.00 22 1013.0
20260503193026 14 220 0.0 9.7 0.00 0.00 0.00 22 1012.6
20260503190058 14 200 0.0 12.9 0.00 0.00 0.00 22 1012.4
20260503190027 14 200 0.0 12.9 0.00 0.00 0.00 22 1012.4
20260503183026 15 291 0.0 9.7 0.00 0.00 0.00 22 1012.1
20260503180026 15 263 0.0 12.9 0.00 0.00 0.00 22 1011.9